PLATFORM,ARGOS_ID,DATE (YYYY/MM/DD HH:MI:SS),LATITUDE (degree_north),LONGITUDE (degree_east),TEMP LEVEL0 (degree_Celsius),EWCT LEVEL0 (meter/second),NSCT LEVEL0 (meter/second),NSCT LEVEL1 (meter/second),EWCT LEVEL1 (meter/second),QC,SC40_GNRL_BattVolt,SC40_GNRL_Submergence
IF000069,24567,2005/10/05 21:00:00,46.1670,-3.6690,18.438,,,,,0011119999,10.65,128
IF000069,24567,2005/10/05 22:00:00,46.1690,-3.6830,18.672,-0.432909,0.089012,0.061775,-0.299474,0011110000,10.59,133
IF000069,24567,2005/10/05 23:00:00,46.1750,-3.6890,18.672,-0.185532,0.267055,0.185325,-0.128337,0011110000,10.59,173
IF000069,24567,2005/10/06 00:00:00,46.1830,-3.6870,18.633,0.0618442,0.35612,0.2471,0.042773,0011110000,10.59,213
IF000069,24567,2005/10/06 01:02:00,46.1910,-3.6780,18.633,0.269321,0.344682,0.239129,0.186244,0011110000,10.53,255
IF000069,24567,2005/10/06 02:00:00,46.1970,-3.6660,18.633,0.38386,0.276376,0.191715,0.265418,0011110000,10.53,255
IF000069,24567,2005/10/06 03:00:00,46.1980,-3.6520,18.672,0.432909,0.04453,0.030887,0.299313,0011110000,10.59,255
IF000069,24567,2005/10/06 04:00:00,46.1970,-3.6420,18.633,0.309221,-0.04453,-0.030887,0.213795,0011110000,10.71,255
IF000069,24567,2005/10/06 05:00:00,46.1910,-3.6380,18.555,0.123688,-0.267163,-0.185325,0.085524,0011110000,10.71,255
IF000069,24567,2005/10/06 06:00:00,46.1820,-3.6390,18.633,-0.0309221,-0.40069,-0.277987,-0.021384,0011110000,10.71,255
IF000069,24567,2005/10/06 07:00:00,46.1730,-3.6470,18.633,-0.247377,-0.400624,-0.277987,-0.171098,0011110000,10.71,255
IF000069,24567,2005/10/06 08:01:00,46.1660,-3.6600,18.672,-0.395397,-0.306443,-0.212668,-0.273517,0011110000,10.53,255
IF000069,24567,2005/10/06 09:00:00,46.1630,-3.6760,18.672,-0.503139,-0.135772,-0.094233,-0.348079,0011110000,10.71,255
IF000069,24567,2005/10/06 10:01:00,46.1630,-3.6900,18.789,-0.425812,-1.2723e-12,0,-0.294591,0011110000,10.59,255
IF000069,24567,2005/10/06 11:00:00,46.1680,-3.6990,18.828,-0.283016,0.226291,0.157055,-0.195791,0011110000,10.71,255
IF000069,24567,2005/10/06 12:00:00,46.1760,-3.7000,18.75,-0.0309221,0.356074,0.2471,-0.021389,0011110000,10.59,255
IF000069,24567,2005/10/06 13:01:00,46.1840,-3.6940,18.828,0.182491,0.350288,0.243049,0.126214,0011110000,10.59,255
IF000069,24567,2005/10/06 14:01:00,46.1920,-3.6830,18.867,0.340143,0.356178,0.2471,0.235215,0011110000,10.59,255
IF000069,24567,2005/10/06 15:00:00,46.1940,-3.6640,18.75,0.597477,0.0905621,0.062822,0.41313,0011110000,10.71,255
IF000069,24567,2005/10/06 16:00:00,46.1930,-3.6600,18.672,0.123688,-0.0445268,-0.030887,0.085524,0011110000,10.71,255
IF000069,24567,2005/10/06 17:00:00,46.1880,-3.6540,18.672,0.185532,-0.222622,-0.154437,0.128294,0011110000,10.71,255
IF000069,24567,2005/10/06 18:00:00,46.1810,-3.6520,18.633,0.0618442,-0.311636,-0.216212,0.042769,0011110000,10.65,255
IF000069,24567,2005/10/06 19:00:00,46.1730,-3.6570,18.594,-0.15461,-0.356107,-0.2471,-0.106938,0011110000,10.59,255
IF000069,24567,2005/10/06 20:00:00,46.1660,-3.6660,18.555,-0.278299,-0.31155,-0.216212,-0.192514,0011110000,10.71,255
IF000069,24567,2005/10/06 21:00:00,46.1600,-3.6790,18.555,-0.401987,-0.267011,-0.185325,-0.278108,0011110000,10.71,255
IF000069,24567,2005/10/06 22:00:00,46.1590,-3.6930,18.633,-0.432909,-0.0444991,-0.030887,-0.29952,0011110000,10.71,255
IF000069,24567,2005/10/06 23:01:00,46.1610,-3.7050,18.594,-0.364982,0.0875399,0.060762,-0.252521,0011110000,10.59,255
IF000069,24567,2005/10/07 00:00:00,46.1670,-3.7090,18.672,-0.125785,0.271542,0.188466,-0.087021,0011110000,10.59,255
IF000069,24567,2005/10/07 01:01:00,46.1760,-3.7060,18.672,0.0912455,0.394013,0.27343,0.063117,0011110000,10.59,255
IF000069,24567,2005/10/07 02:01:00,46.1830,-3.6980,18.633,0.247377,0.311607,0.216212,0.171092,0011110000,10.59,255
IF000069,24567,2005/10/07 03:00:00,46.1870,-3.6870,18.555,0.345908,0.181098,0.125644,0.239215,0011110000,10.71,255
IF000069,24567,2005/10/07 04:00:00,46.1880,-3.6770,18.555,0.309221,0.0445219,0.030887,0.213834,0011110000,10.71,255
IF000069,24567,2005/10/07 05:01:00,46.1850,-3.6700,18.438,0.212906,-0.131374,-0.091143,0.147233,0011110000,10.53,255
IF000069,24567,2005/10/07 06:00:00,46.1810,-3.6680,18.516,0.0628924,-0.181091,-0.125644,0.043495,0011110000,10.71,255
IF000069,24567,2005/10/07 07:01:00,46.1740,-3.6710,18.555,-0.0912455,-0.306488,-0.212668,-0.06311,0011110000,10.71,255
IF000069,24567,2005/10/07 08:01:00,46.1680,-3.6790,18.633,-0.247377,-0.267051,-0.185325,-0.171119,0011110000,10.53,255
IF000069,24567,2005/10/07 09:00:00,46.1630,-3.6910,18.672,-0.377354,-0.226291,-0.157055,-0.261055,0011110000,10.71,255
IF000069,24567,2005/10/07 10:01:00,46.1620,-3.7050,18.633,-0.425812,-0.043772,-0.030381,-0.294594,0011110000,10.59,255
IF000069,24567,2005/10/07 11:00:00,46.1630,-3.7160,18.789,-0.345908,0.0452558,0.031411,-0.239313,0011110000,10.71,255
IF000069,24567,2005/10/07 12:00:00,46.1690,-3.7220,18.906,-0.185532,0.267026,0.185325,-0.128351,0011110000,10.71,255
IF000069,24567,2005/10/07 14:01:00,46.1860,-3.7130,18.906,0.137999,0.37524,0.260374,0.095448,0011110000,10.59,255
IF000069,24567,2005/10/07 15:01:00,46.1910,-3.7020,18.789,0.340143,0.222613,0.154437,0.235213,0011110000,10.59,255
IF000069,24567,2005/10/07 16:00:00,46.1930,-3.6930,18.789,0.283016,0.0905604,0.062822,0.195697,0011110000,10.59,255
IF000069,24567,2005/10/07 17:00:00,46.1900,-3.6870,18.672,0.185532,-0.133575,-0.092662,0.128291,0011110000,10.71,255
IF000069,24567,2005/10/07 18:00:00,46.1880,-3.6860,18.555,0.0309221,-0.0890462,-0.061775,0.021383,0011110000,10.71,255
IF000069,24567,2005/10/07 19:00:00,46.1850,-3.6890,18.555,-0.0927662,-0.133563,-0.092662,-0.064151,0011110000,10.59,255
IF000069,24567,2005/10/07 20:00:00,46.1800,-3.6950,18.555,-0.185532,-0.222589,-0.154437,-0.128312,0011110000,10.59,255
IF000069,24567,2005/10/07 21:01:00,46.1750,-3.7040,18.594,-0.229999,-0.220739,-0.151906,-0.18933,0011110000,10.53,255
IF000069,24567,2005/10/07 22:00:00,46.1740,-3.7160,18.555,-0.377354,-0.0452657,-0.031411,-0.261012,0011110000,10.71,255
IF000069,24567,2005/10/07 23:00:00,46.1750,-3.7270,18.555,-0.358592,0,0.030887,-0.235273,0011110000,10.71,255
IF000069,24567,2005/10/08 00:00:00,46.1790,-3.7350,18.633,-0.247377,0.178053,0.12355,-0.1711,0011110000,10.71,255
IF000069,24567,2005/10/08 01:00:00,46.1870,-3.7360,18.555,-0.0309221,0.356146,0.2471,-0.021385,0011110000,10.71,255
IF000069,24567,2005/10/08 02:00:00,46.1940,-3.7300,18.594,0.185532,0.31167,0.216212,0.128294,0011110000,10.71,255
IF000069,24567,2005/10/08 03:00:00,46.2010,-3.7200,18.477,0.309221,0.31171,0.216212,0.213795,0011110000,10.71,255
IF000069,24567,2005/10/08 04:00:00,46.2030,-3.7100,18.555,0.309221,0.0890674,0.061775,0.213778,0011110000,10.71,255
IF000069,24567,2005/10/08 05:00:00,46.2020,-3.7030,18.398,0.216455,-0.0445341,-0.030887,0.149643,0011110000,10.71,255
IF000069,24567,2005/10/08 06:00:00,46.1990,-3.6990,18.398,0.123688,-0.133597,-0.092662,0.085513,0011110000,10.59,255
IF000069,24567,2005/10/08 07:00:00,46.1950,-3.7010,18.555,-0.0618442,-0.178118,-0.12355,-0.042759,0011110000,10.59,255
IF000069,24567,2005/10/08 08:00:00,46.1890,-3.7050,18.594,-0.123688,-0.267153,-0.185325,-0.085527,0011110000,10.59,255
IF000069,24567,2005/10/08 09:00:00,46.1850,-3.7140,18.594,-0.278299,-0.178086,-0.12355,-0.192453,0011110000,10.71,255
IF000069,24567,2005/10/08 10:00:00,46.1820,-3.7250,18.711,-0.340143,-0.133556,-0.092662,-0.235235,0011110000,10.71,255
IF000069,24567,2005/10/08 11:00:00,46.1820,-3.7370,18.867,-0.371065,0,0,-0.256627,0011110000,10.71,255
IF000069,24567,2005/10/08 12:00:00,46.1850,-3.7460,18.984,-0.278299,0.133556,0.092662,-0.192465,0011110000,10.71,255
IF000069,24567,2005/10/08 13:00:00,46.1910,-3.7480,19.023,-0.0618442,0.267134,0.185325,-0.042766,0011110000,10.59,255
IF000069,24567,2005/10/08 14:00:00,46.1990,-3.7450,19.023,0.0927662,0.356224,0.2471,0.064142,0011110000,10.59,255
IF000069,24567,2005/10/08 15:00:00,46.2060,-3.7360,18.945,0.278299,0.311739,0.216212,0.192398,0011110000,10.71,255
IF000069,24567,2005/10/08 16:01:00,46.2110,-3.7260,18.828,0.304152,0.219044,0.151906,0.210248,0011110000,10.71,255
IF000069,24567,2005/10/08 17:00:00,46.2100,-3.7170,18.906,0.283016,-0.0452956,-0.031411,0.195631,0011110000,10.71,255
IF000069,24567,2005/10/08 18:00:00,46.2070,-3.7120,18.633,0.15461,-0.133617,-0.092662,0.106876,0011110000,10.71,255
IF000069,24567,2005/10/08 19:00:00,46.2020,-3.7110,18.672,0.0309221,-0.222679,-0.154437,0.021377,0011110000,10.59,255
IF000069,24567,2005/10/08 20:01:00,46.1970,-3.7140,18.633,-0.0912455,-0.219008,-0.151906,-0.063085,0011110000,10.53,255
IF000069,24567,2005/10/08 21:00:00,46.1930,-3.7190,18.555,-0.123688,-0.200385,-0.125644,-0.108714,0011110000,10.71,255
IF000069,24567,2005/10/08 22:01:00,46.1890,-3.7280,18.594,-0.273736,-0.175179,-0.121525,-0.189284,0011110000,10.59,255
IF000069,24567,2005/10/08 23:00:00,46.1880,-3.7370,18.594,-0.283016,-0.0452773,-0.031411,-0.195709,0011110000,10.71,255
IF000069,24567,2005/10/09 00:01:00,46.1890,-3.7460,18.633,-0.273736,0.0437928,0.030381,-0.189292,0011110000,10.59,255
IF000069,24567,2005/10/09 01:01:00,46.1930,-3.7510,18.555,-0.15461,0.178099,0.12355,-0.10691,0011110000,10.53,255
IF000069,24567,2005/10/09 02:00:00,46.1990,-3.7480,18.555,0.0943386,0.271701,0.188466,0.065227,0011110000,10.59,255
IF000069,24567,2005/10/09 03:02:00,46.2060,-3.7420,18.594,0.179548,0.301683,0.209238,0.124128,0011110000,10.53,255
IF000069,24567,2005/10/09 04:00:00,46.2100,-3.7340,18.594,0.255907,0.184298,0.12781,0.1769,0011110000,10.71,255
IF000069,24567,2005/10/09 05:00:00,46.2120,-3.7260,18.633,0.247377,0.0890821,0.061775,0.170994,0011110000,10.71,255
IF000069,24567,2005/10/09 06:00:00,46.2100,-3.7200,18.555,0.185532,-0.0890821,-0.061775,0.128246,0011110000,10.59,255
IF000069,24567,2005/10/09 07:01:00,46.2060,-3.7180,18.594,0.0608303,-0.175234,-0.121525,0.04205,0011110000,10.71,255
IF000069,24567,2005/10/09 08:00:00,46.2020,-3.7190,18.555,-0.0314462,-0.181161,-0.125644,-0.021739,0011110000,10.71,255
IF000069,24567,2005/10/09 09:00:00,46.1970,-3.7220,18.633,-0.0927662,-0.222658,-0.154437,-0.064136,0011110000,10.71,255
IF000069,24567,2005/10/09 10:00:00,46.1950,-3.7300,18.672,-0.247377,-0.0890576,-0.061775,-0.171041,0011110000,10.71,255
IF000069,24567,2005/10/09 11:00:00,46.1930,-3.7390,18.672,-0.278299,-0.0890543,-0.061775,-0.192428,0011110000,10.71,255
IF000069,24567,2005/10/09 12:01:00,46.1930,-3.7490,18.789,-0.304152,0,0,-0.210308,0011110000,10.53,255
IF000069,24567,2005/10/09 13:01:00,46.1960,-3.7550,18.867,-0.185532,0.133583,0.092662,-0.128284,0011110000,10.59,255
IF000069,24567,2005/10/09 14:00:00,46.2010,-3.7550,18.789,1.53614e-13,0.226428,0.157055,0,0011110000,10.71,255
IF000069,24567,2005/10/09 15:00:00,46.2070,-3.7500,18.828,0.15461,0.267212,0.185325,0.106885,0011110000,10.59,255
IF000069,24567,2005/10/09 17:00:00,46.2150,-3.7350,18.75,0.231916,0.178164,0.12355,0.160307,0011110000,10.59,255
IF000069,24567,2005/10/09 18:01:00,46.2150,-3.7290,18.672,0.182491,0,0,0.126134,0011110000,10.59,255
IF000069,24567,2005/10/09 19:00:00,46.2140,-3.7260,18.75,0.0943386,-0.0452989,-0.031411,0.065206,0011110000,10.59,255
IF000069,24567,2005/10/09 20:01:00,46.2090,-3.7240,18.711,0.0608303,-0.219056,-0.151906,0.042047,0011110000,10.53,255
IF000069,24567,2005/10/09 22:02:00,46.2020,-3.7320,18.672,-0.0611646,-0.176197,-0.107213,-0.084799,0011110000,10.53,255
IF000069,24567,2005/10/09 23:00:00,46.1990,-3.7400,18.633,-0.255907,-0.138204,-0.095858,-0.176924,0011110000,10.71,255
IF000069,24567,2005/10/10 01:02:00,46.1990,-3.7540,18.672,-0.212906,0,0,-0.147199,0011110000,10.53,255
IF000069,24567,2005/10/10 02:01:00,46.2030,-3.7570,18.633,-0.0943386,0.181151,0.125644,-0.065222,0011110000,10.59,255
IF000069,24567,2005/10/10 03:02:00,46.2080,-3.7540,18.672,0.0912455,0.219032,0.151906,0.063078,0011110000,10.53,255
IF000069,24567,2005/10/10 04:00:00,46.2120,-3.7480,18.633,0.19193,0.184304,0.12781,0.13267,0011110000,10.71,255
IF000069,24567,2005/10/10 05:01:00,46.2150,-3.7410,18.672,0.212906,0.131439,0.091143,0.14716,0011110000,10.53,255
IF000069,24567,2005/10/10 07:00:00,46.2130,-3.7310,18.633,0.15591,-0.0449178,-0.031147,0.107764,0011110000,10.71,255
IF000069,24567,2005/10/10 08:00:00,46.2100,-3.7290,18.672,0.0618442,-0.133624,-0.092662,0.042748,0011110000,10.59,255
IF000069,24567,2005/10/10 09:01:00,46.2060,-3.7310,18.672,-0.0608303,-0.175234,-0.121525,-0.04205,0011110000,10.59,255
IF000069,24567,2005/10/10 12:00:00,46.1970,-3.7510,18.75,-0.207299,-0.134346,-0.09318,-0.143316,0011110000,10.71,255
IF000069,24567,2005/10/10 14:02:00,46.2000,-3.7660,18.867,-0.228114,0.0657012,0.045572,-0.157715,0011110000,10.53,255
IF000069,24567,2005/10/10 15:00:00,46.2040,-3.7670,18.828,-0.0319884,0.184277,0.12781,-0.022115,0011110000,10.59,255
IF000069,24567,2005/10/10 16:01:00,46.2080,-3.7640,18.906,0.0912455,0.175227,0.121525,0.063077,0011110000,10.59,255
IF000069,24567,2005/10/10 17:00:00,46.2120,-3.7580,18.711,0.188677,0.181181,0.125644,0.130422,0011110000,10.59,255
IF000069,24567,2005/10/10 18:01:00,46.2130,-3.7530,18.672,0.152076,0.0438121,0.030381,0.105117,0011110000,10.53,255
IF000069,24567,2005/10/10 19:00:00,46.2120,-3.7480,18.711,0.157231,-0.0452972,-0.031411,0.10868,0011110000,10.71,255
IF000069,24567,2005/10/10 20:01:00,46.2100,-3.7460,18.828,0.0608303,-0.0876217,-0.060762,0.042048,0011110000,10.59,255
IF000069,24567,2005/10/10 21:00:00,46.2070,-3.7440,18.984,0.0628924,-0.135882,-0.094233,0.043475,0011110000,10.71,255
IF000069,24567,2005/10/10 22:01:00,46.2030,-3.7450,18.906,-0.0304152,-0.175224,-0.121525,-0.021026,0011110000,10.59,255
IF000069,24567,2005/10/10 23:01:00,46.2000,-3.7480,18.945,-0.0927662,-0.1336,-0.092662,-0.064134,0011110000,10.71,255
IF000069,24567,2005/10/11 00:01:00,46.1970,-3.7540,18.828,-0.185532,-0.133593,-0.092662,-0.128275,0011110000,10.59,255
IF000069,24567,2005/10/11 01:00:00,46.1950,-3.7610,18.711,-0.220123,-0.0905671,-0.062822,-0.152197,0011110000,10.59,255
IF000069,24567,2005/10/11 02:00:00,46.1950,-3.7680,18.633,-0.216455,0,0,-0.149664,0011110000,10.71,255
IF000069,24567,2005/10/11 03:02:00,46.1970,-3.7730,18.594,-0.149623,0.0861848,0.059782,-0.103452,0011110000,10.59,255
IF000069,24567,2005/10/11 04:00:00,46.2000,-3.7730,18.672,-7.81313e-13,0.138199,0.095858,0,0011110000,10.59,255
IF000069,24567,2005/10/11 05:01:00,46.2030,-3.7700,18.633,0.0912455,0.13141,0.091143,0.063083,0011110000,10.71,255
IF000069,24567,2005/10/11 11:01:00,46.1950,-3.7600,19.023,0.0515368,-0.059375,-0.041183,0.035632,0011110000,10.59,255
IF000069,24567,2005/10/11 13:02:00,46.1900,-3.7720,19.023,-0.183999,-0.110395,-0.076581,-0.127229,0011110000,10.59,255
IF000069,24567,2005/10/11 14:00:00,46.1900,-3.7800,18.984,-0.255907,0,0,-0.176958,0011110000,10.59,255
IF000069,24567,2005/10/11 15:00:00,46.1900,-3.7850,18.984,-0.15461,0,0,-0.106912,0011110000,10.71,255
IF000069,24567,2005/10/11 16:02:00,46.1940,-3.7880,19.023,-0.0897738,0.172357,0.119564,-0.062076,0011110000,10.53,255
IF000069,24567,2005/10/11 17:00:00,46.1970,-3.7870,18.945,0.0319884,0.138192,0.095858,0.022118,0011110000,10.65,255
IF000069,24567,2005/10/11 18:02:00,46.2000,-3.7830,18.984,0.119698,0.129283,0.089673,0.082758,0011110000,10.53,255
IF000069,24567,2005/10/11 19:00:00,46.2010,-3.7790,19.023,0.127953,0.0460681,0.031953,0.088462,0011110000,10.71,255
IF000069,24567,2005/10/11 20:02:00,46.2010,-3.7750,19.023,0.119698,0,0,0.082754,0011110000,10.53,255
IF000069,24567,2005/10/11 21:00:00,46.1990,-3.7710,18.945,0.127953,-0.0921353,-0.063905,0.088463,0011110000,10.71,255
IF000069,24567,2005/10/11 23:02:00,46.1930,-3.7720,18.945,-0.0152076,-0.131396,-0.091143,-0.010515,0011110000,10.53,255
IF000069,24567,2005/10/12 01:01:00,46.1860,-3.7800,18.906,-0.124728,-0.157142,-0.109015,-0.086249,0011110000,10.53,255
IF000069,24567,2005/10/12 02:01:00,46.1840,-3.7870,18.945,-0.216455,-0.0890397,-0.061775,-0.149691,0011110000,10.53,255
IF000069,24567,2005/10/12 03:00:00,46.1830,-3.7940,18.906,-0.220123,-0.0452732,-0.031411,-0.152232,0011110000,10.71,255
IF000069,24567,2005/10/12 04:00:00,46.1840,-3.7980,18.945,-0.123688,0.0445186,0.030887,-0.08554,0011110000,10.59,255
IF000069,24567,2005/10/12 05:00:00,46.1860,-3.7970,18.984,0.0309221,0.0890397,0.061775,0.021384,0011110000,10.71,255
IF000069,24567,2005/10/12 06:01:00,46.1900,-3.7980,18.906,-0.0304152,0.17517,0.121525,-0.021033,0011110000,10.65,255
IF000069,24567,2005/10/12 07:00:00,46.1920,-3.7940,18.789,0.125785,0.0905588,0.062822,0.086978,0011110000,10.65,255
IF000069,24567,2005/10/12 08:02:00,46.1920,-3.7880,18.789,0.179548,0,0,0.124152,0011110000,10.59,255
IF000069,24567,2005/10/12 09:01:00,46.1930,-3.7860,18.633,0.0628924,0.0452806,0.031411,0.043488,0011110000,10.59,255
IF000069,24567,2005/10/12 10:00:00,46.1910,-3.7830,18.75,0.0943386,-0.0905604,-0.062822,0.065232,0011110000,10.71,255
IF000069,24567,2005/10/12 11:01:00,46.1890,-3.7810,18.867,0.0608303,-0.087588,-0.060762,0.042064,0011110000,10.65,255
IF000069,24567,2005/10/12 13:01:00,46.1830,-3.7870,19.062,-0.0927662,-0.133562,-0.092662,-0.064152,0011110000,10.71,255
IF000069,24567,2005/10/12 14:00:00,46.1800,-3.7940,19.141,-0.220123,-0.135815,-0.094233,-0.152238,0011110000,10.71,255
IF000069,24567,2005/10/12 15:02:00,46.1770,-3.8020,19.141,-0.239397,-0.129236,-0.089673,-0.165576,0011110000,10.53,255
IF000069,24567,2005/10/12 16:02:00,46.1780,-3.8110,19.023,-0.278299,0.0445137,0.030887,-0.192486,0011110000,10.59,255
IF000069,24567,2005/10/12 17:01:00,46.1810,-3.8150,18.945,-0.125785,0.13581,0.094233,-0.086996,0011110000,10.59,255
IF000069,24567,2005/10/12 18:01:00,46.1840,-3.8160,18.828,-0.0309221,0.133553,0.092662,-0.021385,0011110000,10.59,255
IF000069,24567,2005/10/12 19:03:00,46.1880,-3.8130,18.828,0.0897738,0.172338,0.119564,0.062083,0011110000,10.53,255
IF000069,24567,2005/10/12 20:00:00,46.1910,-3.8080,18.711,0.162748,0.140601,0.097539,0.11254,0011110000,10.71,255
IF000069,24567,2005/10/12 21:03:00,46.1930,-3.8010,18.789,0.206147,0.0848106,0.058833,0.142544,0011110000,10.53,255
IF000069,24567,2005/10/12 22:01:00,46.1920,-3.7960,18.945,0.159942,-0.0460613,-0.031953,0.110594,0011110000,10.65,255
IF000069,24567,2005/10/12 23:01:00,46.1920,-3.7920,18.672,0.123688,0,0,0.085527,0011110000,10.71,255
IF000069,24567,2005/10/13 00:02:00,46.1900,-3.7850,18.711,0.212906,-0.0875896,-0.060762,0.147221,0011110000,10.53,255
IF000069,24567,2005/10/13 01:00:00,46.1870,-3.7860,18.633,-0.0319884,-0.138174,-0.095858,-0.02212,0011110000,10.71,255
IF000069,24567,2005/10/13 02:00:00,46.1820,-3.7890,18.75,-0.0927662,-0.222597,-0.154437,-0.064154,0011110000,10.71,255
IF000069,24567,2005/10/13 03:01:00,46.1770,-3.7930,18.75,-0.121661,-0.218928,-0.151906,-0.084144,0011110000,10.71,255
IF000069,24567,2005/10/13 07:03:00,46.1780,-3.8080,18.711,-0.114999,0.0110365,0.007658,-0.07954,0011110000,10.53,255
IF000069,24567,2005/10/13 08:00:00,46.1790,-3.8050,18.672,0.0976487,0.0468574,0.032513,0.067538,0011110000,10.71,255
IF000069,24567,2005/10/13 14:03:00,46.1670,-3.7780,18.633,0.137999,-0.0882844,-0.061264,0.095455,0011110000,10.53,255
IF000069,24567,2005/10/13 15:01:00,46.1610,-3.7830,18.672,-0.159942,-0.276224,-0.191715,-0.110651,0011110000,10.53,255
IF000069,24567,2005/10/14 03:02:00,46.1600,-3.7750,18.398,0.0205861,-0.00370318,-0.00257,0.014243,0011110000,10.59,255
IF000069,24567,2005/10/14 04:00:00,46.1540,-3.7830,18.359,-0.255907,-0.276188,-0.191715,-0.177064,0011110000,10.71,255
IF000069,24567,2005/10/14 05:01:00,46.1490,-3.7920,18.398,-0.273736,-0.218816,-0.151906,-0.18942,0011110000,10.59,255
IF000069,24567,2005/10/14 06:02:00,46.1480,-3.8000,18.398,-0.243321,-0.0437608,-0.030381,-0.168382,0011110000,10.59,255
IF000069,24567,2005/10/14 07:00:00,46.1480,-3.8040,18.438,-0.127953,0,0,-0.088547,0011110000,10.71,255
IF000069,24567,2005/10/14 08:02:00,46.1530,-3.8050,18.438,-0.0299246,0.215283,0.149456,-0.020708,0011110000,10.59,255
IF000069,24567,2005/10/14 09:00:00,46.1580,-3.8000,18.398,0.159942,0.230151,0.159763,0.110668,0011110000,10.71,255
IF000069,24567,2005/10/14 12:02:00,46.1630,-3.7690,18.867,0.316017,0.0733515,0.050913,0.218641,0011110000,10.59,255
IF000069,24567,2005/10/14 16:02:00,46.1390,-3.7710,18.867,-0.015461,-0.266953,-0.185325,-0.010699,0011110000,10.59,255
IF000069,24567,2005/10/14 17:00:00,46.1340,-3.7830,18.789,-0.38386,-0.230071,-0.159763,-0.265696,0011110000,10.76,255
IF000069,24567,2005/10/14 18:03:00,46.1320,-3.7950,18.789,-0.353395,-0.0847191,-0.058833,-0.244624,0011110000,10.59,255
IF000069,24567,2005/10/14 19:02:00,46.1330,-3.8010,18.789,-0.188677,0.045231,0.031411,-0.130606,0011110000,10.53,255
IF000069,24567,2005/10/14 20:00:00,46.1380,-3.8020,18.672,-0.0319884,0.230067,0.159763,-0.022142,0011110000,10.76,255
IF000069,24567,2005/10/14 21:01:00,46.1440,-3.7980,18.672,0.121661,0.262529,0.182287,0.084203,0011110000,10.59,255
IF000069,24567,2005/10/14 22:02:00,46.1500,-3.7890,18.633,0.273736,0.262557,0.182287,0.189435,0011110000,10.59,255
IF000069,24567,2005/10/14 23:01:00,46.1540,-3.7790,18.711,0.314462,0.180988,0.125644,0.217599,0011110000,10.59,255
IF000069,24567,2005/10/15 00:00:00,46.1560,-3.7680,18.672,0.345908,0.0904991,0.062822,0.239346,0011110000,10.76,255
IF000069,24567,2005/10/15 01:01:00,46.1560,-3.7570,18.594,0.334567,0,0,0.231494,0011110000,10.59,255
IF000069,24567,2005/10/15 02:02:00,46.1520,-3.7480,18.633,0.273736,-0.175061,-0.121525,0.189411,0011110000,10.59,255
IF000069,24567,2005/10/15 03:00:00,46.1460,-3.7440,18.672,0.127953,-0.276148,-0.191715,0.088545,0011110000,10.71,255
IF000069,24567,2005/10/15 04:01:00,46.1380,-3.7460,18.633,-0.0608303,-0.350045,-0.243049,-0.042101,0011110000,10.76,255
IF000069,24567,2005/10/15 05:01:00,46.1320,-3.7530,18.633,-0.216455,-0.266875,-0.185325,-0.149827,0011110000,10.71,255
IF000069,24567,2005/10/15 08:01:00,46.1330,-3.7700,18.633,-0.175225,0.0148257,0.010296,-0.121294,0011110000,10.71,255
IF000069,24567,2005/10/15 09:00:00,46.1330,-3.7520,18.75,0.566031,0,0,0.391813,0011110000,10.71,255
IF000069,24567,2005/10/15 10:01:00,46.1450,-3.7550,18.789,-0.0912455,0.525038,0.364574,-0.063154,0011110000,10.65,255
IF000069,24567,2005/10/15 11:00:00,46.1460,-3.7440,18.828,0.345908,0.0452417,0.031411,0.239387,0011110000,10.76,255
IF000069,24567,2005/10/15 12:01:00,46.1470,-3.7290,18.906,0.456227,0.0437592,0.030381,0.315728,0011110000,10.59,255
IF000069,24567,2005/10/15 13:02:00,46.1460,-3.7180,18.906,0.334567,-0.0437592,-0.030381,0.231534,0011110000,10.59,255
IF000069,24567,2005/10/15 14:00:00,46.1400,-3.7100,18.789,0.255907,-0.276118,-0.191715,0.177109,0011110000,10.76,255
IF000069,24567,2005/10/15 15:02:00,46.1360,-3.7100,18.789,6.11303e-13,-0.172187,-0.119564,0,0011110000,10.59,255
IF000069,24567,2005/10/15 16:01:00,46.1300,-3.7130,18.789,-0.0943386,-0.271388,-0.188466,-0.065302,0011110000,10.59,255
IF000069,24567,2005/10/15 17:00:00,46.1240,-3.7200,18.711,-0.220123,-0.271358,-0.188466,-0.152388,0011110000,10.76,255
IF000069,24567,2005/10/15 22:02:00,46.1410,-3.7170,18.594,0.0184304,0.150221,0.104322,0.012758,0011110000,10.59,255
IF000069,24567,2005/10/15 23:00:00,46.1450,-3.6930,18.672,0.767721,0.184079,0.12781,0.531328,0011110000,10.76,255
IF000069,24567,2005/10/16 00:03:00,46.1480,-3.6920,18.672,0.0294496,0.12711,0.08825,0.02038,0011110000,10.59,255
IF000069,24567,2005/10/16 01:00:00,46.1450,-3.6790,18.672,0.423144,-0.14049,-0.097539,0.292833,0011110000,10.76,255
IF000069,24567,2005/10/16 02:01:00,46.1400,-3.6700,18.633,0.273736,-0.21878,-0.151906,0.189451,0011110000,10.59,255
IF000069,24567,2005/10/16 03:02:00,46.1340,-3.6660,18.633,0.121661,-0.262509,-0.182287,0.084209,0011110000,10.59,255
IF000069,24567,2005/10/16 04:00:00,46.1270,-3.6680,18.555,-0.0639767,-0.322064,-0.223668,-0.044287,0011110000,10.76,255
IF000069,24567,2005/10/16 05:01:00,46.1200,-3.6750,18.594,-0.212906,-0.306185,-0.212668,-0.147401,0011110000,10.59,255
IF000069,24567,2005/10/16 07:02:00,46.1130,-3.6980,18.555,-0.352665,-0.154338,-0.107213,-0.244192,0011110000,10.59,255
IF000069,24567,2005/10/16 08:00:00,46.1150,-3.7060,18.516,-0.255907,0.0919905,0.063905,-0.177203,0011110000,10.76,255